Location: Austin
(30.3000°N, 97.7500°W)
Time: 12:06:33
(UTC-05:00)

Cosmos 1726 - Pass Details

Date: 05 September 2024
Orbit: 334 x 344 km, 82.5° (Epoch: 10 September)

Event Time Altitude Azimuth Distance (km) Brightness Sun altitude
Exits shadow 21:13:10 45° 17° (NNE) 493 2.0 -18.7°
Drops below altitude 10° 21:15:16 10° 9° (N) 1,320 4.4 -19.1°
Sets 21:17:13 0° 8° (N) 2,165 5.5 -19.5°
